Saint Simons Island, GA

10:35 PM EST on December 07, 2016 (GMT -0500)
McKinnon

Weather History for KSSI - March, 2013

Change the Weather History Date:

Wednesday, March 6, 2013

  Actual Average Record
Temperature  
Mean Temperature 53 °F 58 °F  
Max Temperature 64 °F 67 °F 85 °F (2003)
Min Temperature 42 °F 50 °F 26 °F (1960)
Degree Days  
Heating Degree Days 12 7  
Month to date heating degree days 97 47  
Since 1 July heating degree days 1012 1298  
Cooling Degree Days 0 1  
Month to date cooling degree days 0 5  
Year to date cooling degree days 28 14  
Growing Degree Days 3 (Base 50)    
Moisture  
Dew Point 32 °F    
Average Humidity 51    
Maximum Humidity 72    
Minimum Humidity 29    
Precipitation  
Precipitation 0.01 in 0.13 in 2.55 in (1984)
Month to date precipitation 0.04 0.82  
Year to date precipitation 4.15 7.51  
Snow  
Snow 0.00 in - 0.00 in ()
Month to date snowfall 0.0  
Since 1 July snowfall 0.0  
Snow Depth -    
Sea Level Pressure  
Sea Level Pressure 29.99 in    
Wind  
Wind Speed 13 mph (WNW)    
Max Wind Speed 24 mph    
Max Gust Speed 38 mph    
Visibility 10 miles    
Events Rain    
T = Trace of Precipitation, MM = Missing Value Source: NWS Daily Summary

Daily Weather History Graph

Daily Weather History Graph

Search for Another Location

Airport or City:

Trip Planner

Search our weather history database for the weather conditions in past years. The results will help you decide how hot, cold, wet, or windy it might be!

Date:

Astronomy

Mar. 06, 2013 Rise Set
Actual Time 6:46 AM EST 6:27 PM EST
Civil Twilight 6:21 AM EST 6:51 PM EST
Nautical Twilight 5:53 AM EST 7:19 PM EST
Astronomical Twilight 5:25 AM EST 7:48 PM EST
Moon 2:38 AM EST (3/6) 1:23 PM EST (3/6)
Length of Visible Light 12h 29m
Length of Day
11h 41m
Waning Crescent, 30% of the Moon is Illuminated
Mar 6
Waning Crescent
Mar 11
New
Mar 19
First Quarter
Mar 27
Full
Apr 3
Last Quarter

Hourly Weather History & Observations

Time (EST) Temp. Windchill Dew Point Humidity Pressure Visibility Wind Dir Wind Speed Gust Speed Precip Events Conditions
12:03 AM 62.6 °F - 60.8 °F 94% 29.85 in 2.5 mi West 10.4 mph 24.2 mph 0.04 in Rain Rain
12:13 AM 62.6 °F - 59.0 °F 88% 29.84 in 8.0 mi West 13.8 mph 25.3 mph 0.04 in Rain Light Rain
12:53 AM 61.0 °F - 55.9 °F 83% 29.85 in 10.0 mi West 12.7 mph 21.9 mph 0.04 in   Scattered Clouds
1:53 AM 57.9 °F - 48.0 °F 70% 29.87 in 10.0 mi West 13.8 mph 25.3 mph N/A   Clear
2:53 AM 53.1 °F - 44.1 °F 71% 29.89 in 10.0 mi West 15.0 mph 24.2 mph N/A   Scattered Clouds
3:53 AM 46.9 °F - 30.9 °F 54% 29.93 in 10.0 mi West 18.4 mph 38.0 mph N/A   Partly Cloudy
4:53 AM 45.0 °F 38.2 °F 28.0 °F 52% 29.95 in 10.0 mi WNW 15.0 mph 26.5 mph N/A   Clear
5:53 AM 44.1 °F 37.4 °F 28.9 °F 55% 29.96 in 10.0 mi West 13.8 mph 21.9 mph N/A   Clear
7:53 AM 45.0 °F 38.9 °F 28.0 °F 52% 30.00 in 10.0 mi West 12.7 mph 25.3 mph N/A   Clear
8:53 AM 46.0 °F 38.5 °F 27.0 °F 47% 30.02 in 10.0 mi West 19.6 mph 31.1 mph N/A   Partly Cloudy
9:53 AM 46.9 °F - 26.1 °F 44% 30.02 in 10.0 mi West 17.3 mph 28.8 mph N/A   Clear
10:53 AM 50.0 °F - 26.1 °F 39% 30.02 in 10.0 mi West 18.4 mph 25.3 mph N/A   Clear
11:53 AM 51.1 °F - 21.9 °F 32% 30.01 in 10.0 mi WNW 11.5 mph 28.8 mph N/A   Clear
12:53 PM 52.0 °F - 21.9 °F 31% 29.99 in 10.0 mi West 20.7 mph 29.9 mph N/A   Clear
1:53 PM 53.1 °F - 23.0 °F 31% 29.97 in 10.0 mi WNW 21.9 mph 31.1 mph N/A   Clear
2:53 PM 53.1 °F - 25.0 °F 34% 29.96 in 10.0 mi West 16.1 mph 28.8 mph N/A   Clear
3:53 PM 53.1 °F - 26.1 °F 35% 29.97 in 10.0 mi WNW 18.4 mph 27.6 mph N/A   Clear
4:53 PM 53.1 °F - 27.0 °F 37% 29.99 in 10.0 mi NW 13.8 mph 21.9 mph N/A   Clear
5:53 PM 51.1 °F - 28.0 °F 41% 30.01 in 10.0 mi WNW 9.2 mph 26.5 mph N/A   Clear
6:53 PM 50.0 °F - 28.0 °F 43% 30.04 in 10.0 mi WNW 6.9 mph 18.4 mph N/A   Clear
7:53 PM 48.9 °F - 28.0 °F 44% 30.08 in 10.0 mi WNW 6.9 mph - N/A   Clear
8:53 PM 46.9 °F - 28.9 °F 50% 30.10 in 10.0 mi NW 6.9 mph - N/A   Clear
9:53 PM 46.0 °F 43.9 °F 28.9 °F 51% 30.13 in 10.0 mi NW 4.6 mph - N/A   Clear
10:53 PM 44.1 °F 40.8 °F 28.0 °F 53% 30.13 in 10.0 mi NNW 5.8 mph - N/A   Clear
11:53 PM 43.0 °F 40.3 °F 28.9 °F 58% 30.14 in 10.0 mi WNW 4.6 mph - N/A   Clear